NKS1020 KLAX-KLAS

Flight info

Callsign NKS1020
Flight time N/A
Altitude 25000
Route ORCKA5 MISEN RNDRZ4
Aircraft A321/M-SDE3FGHIRWY/LB1

Departure

Time 2026-05-04 02:43
Airport Los Angeles International Airport (KLAX)

Arrival

Time N/A
Airport Harry Reid International Airport (KLAS)
Time Latitude Longitude Altitude Speed Heading
2026-05-04 02:09 33.94654 -118.40484 93 ft 0 kts 96°
2026-05-04 02:29 33.94654 -118.40488 93 ft 2 kts 96°
2026-05-04 02:29 33.94656 -118.40510 93 ft 3 kts 96°
2026-05-04 02:30 33.94658 -118.40531 93 ft 3 kts 94°
2026-05-04 02:30 33.94657 -118.40552 93 ft 3 kts 58°
2026-05-04 02:30 33.94645 -118.40565 93 ft 3 kts
2026-05-04 02:30 33.94625 -118.40564 92 ft 3 kts 354°
2026-05-04 02:31 33.94611 -118.40562 92 ft 1 kts 360°
2026-05-04 02:31 33.94621 -118.40563 92 ft 3 kts 357°
2026-05-04 02:31 33.94640 -118.40565 93 ft 2 kts 354°
2026-05-04 02:31 33.94644 -118.40566 93 ft 0 kts 354°
2026-05-04 02:38 33.94646 -118.40566 93 ft 2 kts 354°
2026-05-04 02:38 33.94664 -118.40568 94 ft 4 kts 354°
2026-05-04 02:38 33.94706 -118.40574 93 ft 7 kts 354°
2026-05-04 02:38 33.94754 -118.40580 94 ft 7 kts 351°
2026-05-04 02:39 33.94804 -118.40593 94 ft 8 kts 348°
2026-05-04 02:39 33.94855 -118.40595 94 ft 7 kts 25°
2026-05-04 02:39 33.94870 -118.40541 94 ft 8 kts 85°
2026-05-04 02:39 33.94876 -118.40470 96 ft 9 kts 84°
2026-05-04 02:40 33.94883 -118.40387 95 ft 10 kts 82°
2026-05-04 02:40 33.94893 -118.40297 94 ft 11 kts 82°
2026-05-04 02:40 33.94904 -118.40198 97 ft 12 kts 83°
2026-05-04 02:40 33.94915 -118.40090 95 ft 14 kts 83°
2026-05-04 02:41 33.94929 -118.39972 93 ft 14 kts 78°
2026-05-04 02:41 33.94993 -118.39912 94 ft 13 kts 358°
2026-05-04 02:41 33.95038 -118.39985 95 ft 12 kts 266°
2026-05-04 02:41 33.95036 -118.40014 95 ft 0 kts 263°
2026-05-04 02:42 33.95024 -118.40130 97 ft 44 kts 263°
2026-05-04 02:42 33.94957 -118.40779 99 ft 110 kts 263°
2026-05-04 02:42 33.94838 -118.41912 112 ft 159 kts 262°
2026-05-04 02:43 33.94704 -118.43222 740 ft 153 kts 262°
2026-05-04 02:43 33.94584 -118.44485 1441 ft 153 kts 264°
2026-05-04 02:43 33.94440 -118.45824 1757 ft 172 kts 263°
2026-05-04 02:43 33.94273 -118.47360 2016 ft 196 kts 263°
2026-05-04 02:44 33.94083 -118.49082 2348 ft 219 kts 262°
2026-05-04 02:44 33.93872 -118.50969 2702 ft 239 kts 262°
2026-05-04 02:44 33.93645 -118.52988 3317 ft 247 kts 262°
2026-05-04 02:44 33.93412 -118.55051 4073 ft 249 kts 262°
2026-05-04 02:45 33.93183 -118.57080 5050 ft 240 kts 262°
2026-05-04 02:45 33.92957 -118.59070 5853 ft 241 kts 262°
2026-05-04 02:45 33.92619 -118.61035 6598 ft 242 kts 248°
2026-05-04 02:45 33.91651 -118.62694 7243 ft 247 kts 221°
2026-05-04 02:46 33.90111 -118.63630 7926 ft 253 kts 193°
2026-05-04 02:46 33.88346 -118.63550 8620 ft 261 kts 164°
2026-05-04 02:46 33.86792 -118.62394 9311 ft 270 kts 135°
2026-05-04 02:46 33.85906 -118.60380 9976 ft 281 kts 103°
2026-05-04 02:47 33.86031 -118.58029 10547 ft 289 kts 69°
2026-05-04 02:47 33.86960 -118.55897 11117 ft 294 kts 60°
2026-05-04 02:47 33.88012 -118.53770 11707 ft 297 kts 60°
2026-05-04 02:47 33.89087 -118.51628 12296 ft 301 kts 60°
2026-05-04 02:48 33.90175 -118.49457 12838 ft 306 kts 60°
2026-05-04 02:48 33.91276 -118.47249 12975 ft 307 kts 60°
2026-05-04 02:48 33.92373 -118.45044 13005 ft 307 kts 60°
2026-05-04 02:48 33.93488 -118.42852 13002 ft 307 kts 58°
2026-05-04 02:49 33.94667 -118.40710 13003 ft 307 kts 57°
2026-05-04 02:49 33.95879 -118.38592 13017 ft 308 kts 56°
2026-05-04 02:49 33.97117 -118.36458 13485 ft 315 kts 56°
2026-05-04 02:49 33.98406 -118.34226 13706 ft 334 kts 56°
2026-05-04 02:50 33.99766 -118.31850 13846 ft 354 kts 57°
2026-05-04 02:50 34.01198 -118.29332 13980 ft 373 kts 56°
2026-05-04 02:50 34.02696 -118.26694 14104 ft 390 kts 56°
2026-05-04 02:50 34.04254 -118.23947 14447 ft 400 kts 56°
2026-05-04 02:51 34.05839 -118.21152 14907 ft 406 kts 56°
2026-05-04 02:51 34.07444 -118.18312 15369 ft 412 kts 56°
2026-05-04 02:51 34.09070 -118.15435 15848 ft 418 kts 56°
2026-05-04 02:51 34.10719 -118.12523 16331 ft 423 kts 55°
2026-05-04 02:52 34.12397 -118.09565 16814 ft 429 kts 55°
2026-05-04 02:52 34.14087 -118.06579 17294 ft 434 kts 54°
2026-05-04 02:52 34.15798 -118.03551 17738 ft 439 kts 54°
2026-05-04 02:52 34.17529 -118.00477 18217 ft 445 kts 54°
2026-05-04 02:53 34.19274 -117.97370 18627 ft 450 kts 54°
2026-05-04 02:53 34.21040 -117.94222 19051 ft 454 kts 54°
2026-05-04 02:53 34.22798 -117.91090 19476 ft 458 kts 54°
2026-05-04 02:53 34.24596 -117.87885 19837 ft 463 kts 54°
2026-05-04 02:54 34.26407 -117.84650 20296 ft 466 kts 54°
2026-05-04 02:54 34.28235 -117.81381 20733 ft 470 kts 54°
2026-05-04 02:54 34.30073 -117.78092 21174 ft 473 kts 54°
2026-05-04 02:54 34.31923 -117.74785 21612 ft 477 kts 54°
2026-05-04 02:55 34.35681 -117.68076 22373 ft 485 kts 53°
2026-05-04 02:55 34.37621 -117.64722 22693 ft 488 kts 52°
2026-05-04 02:55 34.39615 -117.61385 23055 ft 491 kts 51°
2026-05-04 02:56 34.41652 -117.58037 23396 ft 494 kts 51°
2026-05-04 02:56 34.43702 -117.54679 23718 ft 498 kts 51°
2026-05-04 02:56 34.45759 -117.51286 24060 ft 501 kts 51°
2026-05-04 02:56 34.47818 -117.47852 24369 ft 504 kts 52°
2026-05-04 02:57 34.49871 -117.44397 24713 ft 505 kts 52°
2026-05-04 02:57 34.51916 -117.40936 24909 ft 505 kts 52°
2026-05-04 02:57 34.53952 -117.37486 24959 ft 500 kts 52°
2026-05-04 02:57 34.55945 -117.34112 24962 ft 497 kts 52°
2026-05-04 02:58 34.57956 -117.30705 24963 ft 497 kts 52°
2026-05-04 02:58 34.59970 -117.27297 24961 ft 496 kts 52°
2026-05-04 02:58 34.61981 -117.23895 24948 ft 496 kts 52°
2026-05-04 02:58 34.63990 -117.20496 24932 ft 496 kts 52°
2026-05-04 02:59 34.66007 -117.17086 24811 ft 496 kts 52°
2026-05-04 02:59 34.68015 -117.13688 24831 ft 495 kts 52°
2026-05-04 02:59 34.70023 -117.10281 24816 ft 495 kts 52°
2026-05-04 02:59 34.72028 -117.06867 24822 ft 495 kts 52°
2026-05-04 03:00 34.73899 -117.03681 24825 ft 495 kts 52°
2026-05-04 03:00 34.75858 -117.00338 24826 ft 495 kts 52°
2026-05-04 03:00 34.77802 -116.97023 24826 ft 495 kts 52°
2026-05-04 03:00 34.79600 -116.93958 24831 ft 495 kts 52°
2026-05-04 03:01 34.81285 -116.91085 24841 ft 495 kts 52°
2026-05-04 03:01 34.83283 -116.87677 24885 ft 495 kts 52°
2026-05-04 03:01 34.85284 -116.84259 24856 ft 496 kts 52°
2026-05-04 03:01 34.87287 -116.80833 24841 ft 497 kts 52°
2026-05-04 03:02 34.89262 -116.77448 24835 ft 497 kts 53°
2026-05-04 03:02 34.91264 -116.74009 24832 ft 498 kts 53°
2026-05-04 03:02 34.93261 -116.70565 24828 ft 498 kts 53°
2026-05-04 03:02 34.95240 -116.67100 24819 ft 499 kts 53°